This is the latest recevied weather packets stored in our database for station/object KC3BHK-2. If no packets are shown the sender has not sent any weather packets the latest 10 day(s).
| Time | Temp. | Humidity | Pressure | Rain* | Wind** | Luminosity | Snow |
|---|---|---|---|---|---|---|---|
| 1778085162 | 18.33° C | - | - | 0 mm | 3.58 m/s, 170° | - | - |
| 1778084857 | 18.33° C | - | - | 0 mm | 1.79 m/s, 145° | - | - |
| 1778084550 | 18.33° C | - | - | 0 mm | 2.24 m/s, 132° | - | - |
| 1778083940 | 17.22° C | - | - | 0 mm | 4.02 m/s, 163° | - | - |
| 1778083635 | 17.78° C | - | - | 0 mm | 3.58 m/s, 186° | - | - |
| 1778083330 | 16.67° C | - | - | 0 mm | 2.68 m/s, 180° | - | - |
| 1778083024 | 17.22° C | - | - | 0 mm | 1.79 m/s, 114° | - | - |
| 1778082716 | 16.67° C | - | - | 0 mm | 3.13 m/s, 174° | - | - |
| 1778082411 | 16.11° C | - | - | 0 mm | 4.02 m/s, 191° | - | - |
| 1778082106 | 16.67° C | - | - | 0 mm | 5.36 m/s, 169° | - | - |
| 1778081801 | 16.11° C | - | - | 0 mm | 4.02 m/s, 200° | - | - |
| 1778081496 | 16.67° C | - | - | 0 mm | 3.13 m/s, 177° | - | - |
| 1778081191 | 16.11° C | - | - | 0 mm | 5.36 m/s, 162° | - | - |
| 1778080884 | 16.11° C | - | - | 0 mm | 4.02 m/s, 90° | - | - |
| 1778080579 | 16.67° C | - | - | 0 mm | 1.79 m/s, 59° | - | - |
| 1778080274 | 16.67° C | - | - | 0 mm | 6.26 m/s, 117° | - | - |
| 1778079969 | 15.56° C | - | - | 0 mm | 4.47 m/s, 136° | - | - |
| 1778079664 | 16.67° C | - | - | 0 mm | 4.02 m/s, 173° | - | - |
| 1778079360 | 15.56° C | - | - | 0 mm | 4.02 m/s, 173° | - | - |
| 1778078746 | 15.56° C | - | - | 0 mm | 3.58 m/s, 158° | - | - |
| 1778078441 | 16.11° C | - | - | 0 mm | 4.02 m/s, 141° | - | - |
| 1778078136 | 15.56° C | - | - | 0 mm | 3.58 m/s, 146° | - | - |
| 1778077832 | 15.56° C | - | - | 0 mm | 3.58 m/s, 174° | - | - |
| 1778077527 | 16.11° C | - | - | 0 mm | 3.58 m/s, 155° | - | - |
| 1778077219 | 15.56° C | - | - | 0 mm | 4.02 m/s, 131° | - | - |
* Rain latest hour (hover to see other rain measurements)
** Current wind speed in m/s (hover to see current wind gust speed)